Location: Arrodets-la-Barthe
(43.0306°N, 0.2829°E)
Time: 13:10:40
(UTC+00:00)

Lacrosse 4 Rocket - Pass Details

Date: 07 June 2022
Orbit: 541 x 611 km, 68.0° (Epoch: 03 July)

Event Time Altitude Azimuth Distance (km) Brightness Sun altitude
Exits shadow 02:12:58 20° 267° (W) 1,352 3.0 -17.2°
Maximum altitude 02:14:50 28° 308° (NW) 1,091 2.8 -17.1°
Drops below altitude 10° 02:18:26 10° 8° (N) 1,855 5.0 -16.7°
Sets 02:20:53 0° 20° (NNE) 2,743 6.4 -16.4°
